Location: ??
(34.9170°N, 135.5016°E)
Time: 00:22:02
(UTC+00:00)

RS-15 - Pass Details

Date: 21 April 2021
Orbit: 1888 x 2157 km, 64.8° (Epoch: 12 May)

Event Time Altitude Azimuth Distance (km) Brightness Sun altitude
Rises 09:49:58 0° 219° (SW) 5,262 10.6 -3.8°
Reaches altitude 10° 09:53:13 10° 222° (SW) 4,280 10.2 -4.4°
Maximum altitude 10:04:03 65° 303° (WNW) 2,101 8.6 -6.5°
Drops below altitude 10° 10:15:28 10° 25° (NNE) 4,475 9.9 -8.7°
Sets 10:18:59 0° 29° (NNE) 5,513 10.3 -9.4°
